CPA270 EHAM-VHHH

Flight info

Callsign CPA270
Flight time N/A
Altitude 35000
Route ARNEM L620 HMM DCT NOMKA DCT OMELO DCT ODLIV DCT OMIFU DCT SAGAN DCT ETNOG DCT ROMAG DCT UDROS/N0483F370 UM859 KARDE UL851 TBN UM11 REBLO M11 LUSAL N199 RASAM L88 METKA B476 TIMGA/N0490F390 B476 DARVA/K0900F390 T898 OGOLI N193 SR L163 TISIB L141 KAMUD/K0891S1190 W186 SADAN Y1 NUPNI/K0896S1250 Y1 OMBON W245 OVRAL B330 KWE W181 DUDIT A599 POU R473 SIERA
Aircraft A359/H-SDE2E3GHIJ3J4J5LM1ORWXY/LB1D1

Departure

Time 2026-04-28 19:07
Airport Amsterdam Airport Schiphol (EHAM)

Arrival

Time N/A
Airport Hong Kong International Airport (VHHH)
Time Latitude Longitude Altitude Speed Heading
2026-04-28 18:18 52.31234 4.75816 5 ft 0 kts 266°
2026-04-28 18:53 52.31235 4.75826 5 ft 4 kts 265°
2026-04-28 18:53 52.31238 4.75870 5 ft 4 kts 258°
2026-04-28 18:53 52.31244 4.75912 5 ft 4 kts 269°
2026-04-28 18:53 52.31242 4.75936 5 ft 2 kts 350°
2026-04-28 18:54 52.31219 4.75941 5 ft 4 kts 357°
2026-04-28 18:54 52.31211 4.75941 5 ft 0 kts 356°
2026-04-28 18:57 52.31224 4.75940 5 ft 5 kts 356°
2026-04-28 18:57 52.31270 4.75936 5 ft 7 kts 356°
2026-04-28 18:57 52.31331 4.75930 5 ft 10 kts 356°
2026-04-28 18:58 52.31413 4.75923 5 ft 13 kts 356°
2026-04-28 18:58 52.31509 4.75895 5 ft 14 kts 321°
2026-04-28 18:58 52.31521 4.75737 5 ft 15 kts 266°
2026-04-28 18:58 52.31515 4.75545 5 ft 19 kts 266°
2026-04-28 18:59 52.31507 4.75315 5 ft 22 kts 267°
2026-04-28 18:59 52.31498 4.75064 5 ft 23 kts 266°
2026-04-28 18:59 52.31489 4.74805 5 ft 23 kts 266°
2026-04-28 18:59 52.31480 4.74549 5 ft 22 kts 266°
2026-04-28 19:00 52.31478 4.74344 5 ft 12 kts 287°
2026-04-28 19:00 52.31545 4.74296 5 ft 13 kts 358°
2026-04-28 19:00 52.31646 4.74304 5 ft 16 kts
2026-04-28 19:00 52.31772 4.74317 5 ft 20 kts
2026-04-28 19:01 52.31910 4.74330 5 ft 20 kts
2026-04-28 19:01 52.32020 4.74299 5 ft 13 kts 307°
2026-04-28 19:01 52.32033 4.74139 5 ft 16 kts 272°
2026-04-28 19:01 52.32040 4.73932 4 ft 20 kts 274°
2026-04-28 19:02 52.32049 4.73693 5 ft 21 kts 273°
2026-04-28 19:02 52.32060 4.73453 5 ft 21 kts 284°
2026-04-28 19:02 52.32147 4.73271 5 ft 21 kts 320°
2026-04-28 19:02 52.32256 4.73119 5 ft 21 kts 320°
2026-04-28 19:03 52.32366 4.72966 5 ft 21 kts 320°
2026-04-28 19:03 52.32474 4.72810 5 ft 21 kts 317°
2026-04-28 19:03 52.32583 4.72656 5 ft 21 kts 319°
2026-04-28 19:03 52.32691 4.72495 5 ft 21 kts 314°
2026-04-28 19:04 52.32791 4.72313 5 ft 23 kts 312°
2026-04-28 19:04 52.32898 4.72115 5 ft 24 kts 310°
2026-04-28 19:04 52.33010 4.71908 5 ft 24 kts 311°
2026-04-28 19:04 52.33117 4.71709 5 ft 21 kts 308°
2026-04-28 19:05 52.33125 4.71497 5 ft 19 kts 235°
2026-04-28 19:05 52.33027 4.71349 5 ft 19 kts 220°
2026-04-28 19:05 52.32926 4.71206 5 ft 19 kts 221°
2026-04-28 19:05 52.32862 4.71065 5 ft 15 kts 257°
2026-04-28 19:06 52.32873 4.70911 4 ft 11 kts 296°
2026-04-28 19:06 52.32891 4.70895 4 ft 4 kts 344°
2026-04-28 19:06 52.32998 4.70904 3 ft 31 kts
2026-04-28 19:06 52.33432 4.70945 4 ft 91 kts
2026-04-28 19:07 52.34245 4.71018 3 ft 142 kts
2026-04-28 19:07 52.35366 4.71126 154 ft 170 kts
2026-04-28 19:07 52.36527 4.71240 737 ft 169 kts
2026-04-28 19:07 52.37737 4.71346 1050 ft 182 kts
2026-04-28 19:08 52.39062 4.71469 1261 ft 200 kts
2026-04-28 19:08 52.40521 4.71611 1498 ft 218 kts
2026-04-28 19:08 52.42073 4.71948 1755 ft 236 kts 17°
2026-04-28 19:08 52.43626 4.73099 2029 ft 253 kts 28°
2026-04-28 19:09 52.45182 4.74546 2529 ft 260 kts 30°
2026-04-28 19:09 52.46723 4.76141 3105 ft 264 kts 38°
2026-04-28 19:09 52.47869 4.78485 3645 ft 267 kts 66°
2026-04-28 19:09 52.48288 4.81449 4210 ft 269 kts 85°
2026-04-28 19:10 52.48441 4.84524 4766 ft 272 kts 86°
2026-04-28 19:10 52.48563 4.87638 5321 ft 275 kts 89°
2026-04-28 19:10 52.48286 4.90733 5842 ft 277 kts 112°
2026-04-28 19:10 52.47206 4.93318 6379 ft 278 kts 139°
2026-04-28 19:11 52.45670 4.95244 6934 ft 280 kts 146°
2026-04-28 19:11 52.44060 4.97063 7480 ft 282 kts 146°
2026-04-28 19:11 52.42434 4.98906 8030 ft 285 kts 146°
2026-04-28 19:11 52.40838 5.00855 8568 ft 289 kts 138°
2026-04-28 19:12 52.39529 5.03366 9108 ft 292 kts 123°
2026-04-28 19:12 52.38578 5.06300 9630 ft 295 kts 114°
2026-04-28 19:12 52.37851 5.09456 10134 ft 298 kts 109°
2026-04-28 19:12 52.37225 5.12758 10405 ft 310 kts 107°
2026-04-28 19:13 52.36609 5.16211 10631 ft 322 kts 107°
2026-04-28 19:13 52.35953 5.19781 10859 ft 333 kts 107°
2026-04-28 19:13 52.35246 5.23451 11075 ft 343 kts 108°
2026-04-28 19:13 52.34505 5.27147 11278 ft 353 kts 109°
2026-04-28 19:14 52.33697 5.31069 11483 ft 363 kts 109°
2026-04-28 19:14 52.32872 5.35021 11673 ft 371 kts 109°
2026-04-28 19:14 52.32026 5.39053 11847 ft 379 kts 109°
2026-04-28 19:14 52.31162 5.43166 12010 ft 386 kts 109°
2026-04-28 19:15 52.30283 5.47356 12160 ft 393 kts 109°
2026-04-28 19:15 52.29390 5.51606 12304 ft 399 kts 109°
2026-04-28 19:15 52.28484 5.55915 12508 ft 402 kts 109°
2026-04-28 19:15 52.27880 5.58781 12662 ft 404 kts 109°
2026-04-28 19:16 52.26651 5.64599 12977 ft 406 kts 109°
2026-04-28 19:16 52.25727 5.68967 13209 ft 408 kts 109°
2026-04-28 19:16 52.24797 5.73348 13434 ft 410 kts 109°
2026-04-28 19:16 52.23862 5.77751 13654 ft 411 kts 109°
2026-04-28 19:17 52.22922 5.82166 13867 ft 413 kts 109°
2026-04-28 19:17 52.21978 5.86593 14074 ft 414 kts 109°
2026-04-28 19:17 52.21028 5.91037 14280 ft 416 kts 109°
2026-04-28 19:17 52.20077 5.95469 14715 ft 411 kts 108°
2026-04-28 19:18 52.19141 5.99815 15601 ft 403 kts 108°
2026-04-28 19:18 52.18212 6.04122 16216 ft 404 kts 108°
2026-04-28 19:18 52.17279 6.08452 16694 ft 407 kts 108°
2026-04-28 19:18 52.16337 6.12820 17186 ft 410 kts 108°
2026-04-28 19:19 52.15387 6.17221 17671 ft 413 kts 108°
2026-04-28 19:19 52.14440 6.21591 18135 ft 417 kts 108°
2026-04-28 19:19 52.13470 6.26049 18629 ft 419 kts 108°
2026-04-28 19:19 52.12492 6.30536 19137 ft 422 kts 108°
2026-04-28 19:20 52.11505 6.35048 19636 ft 425 kts 108°
2026-04-28 19:20 52.10509 6.39588 20119 ft 427 kts 108°
2026-04-28 19:20 52.09495 6.44206 20618 ft 430 kts 108°
2026-04-28 19:20 52.08484 6.48805 21089 ft 433 kts 108°
2026-04-28 19:21 52.07467 6.53424 21548 ft 436 kts 108°
2026-04-28 19:21 52.06452 6.58018 21998 ft 439 kts 108°
2026-04-28 19:21 52.05417 6.62693 22436 ft 441 kts 108°
2026-04-28 19:21 52.04371 6.67406 22866 ft 444 kts 108°
2026-04-28 19:22 52.03318 6.72142 23289 ft 447 kts 108°
2026-04-28 19:22 52.02964 6.73747 23429 ft 448 kts 108°
2026-04-28 19:22 52.01509 6.81859 24108 ft 452 kts 103°
2026-04-28 19:22 52.00704 6.86809 24512 ft 455 kts 103°
2026-04-28 19:23 51.99914 6.91801 24899 ft 458 kts 103°
2026-04-28 19:23 51.99383 6.95191 25161 ft 460 kts 103°
2026-04-28 19:23 51.98593 7.00246 25440 ft 465 kts 103°
2026-04-28 19:23 51.97529 7.07032 25798 ft 472 kts 103°
2026-04-28 19:24 51.96975 7.10528 26038 ft 474 kts 103°
2026-04-28 19:24 51.96122 7.15699 26450 ft 476 kts 105°
2026-04-28 19:24 51.95198 7.20785 26785 ft 479 kts 106°
2026-04-28 19:24 51.94211 7.25970 27133 ft 482 kts 106°
2026-04-28 19:25 51.93208 7.31168 27499 ft 484 kts 106°
2026-04-28 19:25 51.92205 7.36387 27835 ft 486 kts 106°
2026-04-28 19:25 51.91206 7.41633 28153 ft 489 kts 106°
2026-04-28 19:25 51.90207 7.46910 28476 ft 491 kts 105°
2026-04-28 19:26 51.89208 7.52210 28801 ft 493 kts 105°
2026-04-28 19:26 51.88208 7.57514 29097 ft 494 kts 105°
2026-04-28 19:26 51.87201 7.62848 29380 ft 496 kts 105°
2026-04-28 19:26 51.86191 7.68193 29678 ft 498 kts 105°
2026-04-28 19:27 51.85186 7.73561 30003 ft 497 kts 104°
2026-04-28 19:27 51.84351 7.78970 30397 ft 495 kts 101°
2026-04-28 19:27 51.83646 7.84399 30758 ft 494 kts 99°
2026-04-28 19:27 51.82982 7.89847 31115 ft 493 kts 99°
2026-04-28 19:28 51.82317 7.95278 31453 ft 492 kts 99°
2026-04-28 19:28 51.81632 8.00684 31748 ft 491 kts 100°
2026-04-28 19:28 51.80926 8.06079 32006 ft 492 kts 100°
2026-04-28 19:28 51.80200 8.11482 32281 ft 491 kts 100°
2026-04-28 19:29 51.79464 8.16864 32559 ft 491 kts 100°
2026-04-28 19:29 51.78962 8.20503 32720 ft 491 kts 100°
2026-04-28 19:29 51.77972 8.27636 33055 ft 491 kts 101°
2026-04-28 19:29 51.77222 8.33016 33287 ft 491 kts 101°
2026-04-28 19:30 51.76471 8.38395 33490 ft 492 kts 101°
2026-04-28 19:30 51.75716 8.43791 33669 ft 493 kts 101°
2026-04-28 19:30 51.74959 8.49181 33841 ft 494 kts 101°
2026-04-28 19:30 51.74197 8.54592 33999 ft 495 kts 101°
2026-04-28 19:31 51.73431 8.60010 34168 ft 496 kts 101°
2026-04-28 19:31 51.72661 8.65445 34339 ft 497 kts 101°
2026-04-28 19:31 51.71889 8.70877 34505 ft 497 kts 101°
2026-04-28 19:31 51.71119 8.76262 34641 ft 499 kts 101°
2026-04-28 19:32 51.70335 8.81722 34786 ft 500 kts 101°
2026-04-28 19:32 51.69550 8.87175 34948 ft 500 kts 101°
2026-04-28 19:32 51.68759 8.92648 35076 ft 501 kts 101°
2026-04-28 19:32 51.67967 8.98108 35244 ft 502 kts 101°
2026-04-28 19:33 51.66363 9.09120 35293 ft 508 kts 101°
2026-04-28 19:33 51.64732 9.20224 35289 ft 510 kts 102°
2026-04-28 19:34 51.63090 9.31326 35295 ft 510 kts 102°
2026-04-28 19:34 51.61436 9.42437 35289 ft 510 kts 102°
2026-04-28 19:35 51.59771 9.53536 35291 ft 510 kts 102°
2026-04-28 19:35 51.58097 9.64626 35301 ft 510 kts 102°